TimeCDT,TemperatureF,Dew PointF,Humidity,Sea Level PressureIn,VisibilityMPH,Wind Direction,Wind SpeedMPH,Gust SpeedMPH,PrecipitationIn,Events,Conditions,WindDirDegrees,DateUTC
12:23 AM,51.8,50.0,94,30.11,1.8,Calm,Calm,-,N/A,,Clear,0,2013-10-10 05:23:00
12:33 AM,51.8,50.0,94,30.11,0.5,Calm,Calm,-,N/A,Fog,Fog,0,2013-10-10 05:33:00
12:44 AM,50.0,48.2,94,30.10,1.2,Calm,Calm,-,N/A,,Clear,0,2013-10-10 05:44:00
12:54 AM,50.0,48.0,93,30.10,2.0,Calm,Calm,-,N/A,,Clear,0,2013-10-10 05:54:00
1:04 AM,50.0,48.2,94,30.10,4.0,Calm,Calm,-,N/A,,Clear,0,2013-10-10 06:04:00
1:33 AM,50.0,48.2,94,30.10,1.8,Calm,Calm,-,N/A,,Clear,0,2013-10-10 06:33:00
1:43 AM,50.0,48.2,94,30.10,0.8,Calm,Calm,-,N/A,,Clear,0,2013-10-10 06:43:00
1:50 AM,50.0,48.2,94,30.10,2.0,Calm,Calm,-,N/A,,Clear,0,2013-10-10 06:50:00
1:54 AM,50.0,48.0,93,30.10,1.5,Calm,Calm,-,N/A,,Clear,0,2013-10-10 06:54:00
2:02 AM,50.0,48.2,94,30.11,4.0,Calm,Calm,-,N/A,,Clear,0,2013-10-10 07:02:00
2:28 AM,48.2,48.2,100,30.11,1.8,Calm,Calm,-,N/A,,Clear,0,2013-10-10 07:28:00
2:35 AM,50.0,48.2,94,30.11,3.0,Calm,Calm,-,N/A,,Clear,0,2013-10-10 07:35:00
2:54 AM,51.1,48.9,92,30.11,9.0,Calm,Calm,-,N/A,,Mostly Cloudy,0,2013-10-10 07:54:00
3:54 AM,51.1,48.9,92,30.10,3.0,Calm,Calm,-,N/A,,Scattered Clouds,0,2013-10-10 08:54:00
4:01 AM,51.8,48.2,88,30.11,2.5,Calm,Calm,-,N/A,,Scattered Clouds,0,2013-10-10 09:01:00
4:10 AM,51.8,48.2,88,30.11,6.0,Calm,Calm,-,N/A,,Partly Cloudy,0,2013-10-10 09:10:00
4:49 AM,50.0,48.2,94,30.11,6.0,Calm,Calm,-,N/A,,Partly Cloudy,0,2013-10-10 09:49:00
4:54 AM,50.0,48.9,96,30.10,6.0,Calm,Calm,-,N/A,,Partly Cloudy,0,2013-10-10 09:54:00
5:05 AM,50.0,48.2,94,30.11,1.2,Calm,Calm,-,N/A,,Mostly Cloudy,0,2013-10-10 10:05:00
5:13 AM,48.2,46.4,93,30.12,0.8,WSW,3.5,-,N/A,,Mist,250,2013-10-10 10:13:00
5:17 AM,48.2,46.4,93,30.12,3.0,WSW,3.5,-,N/A,,Mostly Cloudy,240,2013-10-10 10:17:00
5:29 AM,50.0,48.2,94,30.12,6.0,Calm,Calm,-,N/A,,Mostly Cloudy,0,2013-10-10 10:29:00
5:54 AM,51.1,48.9,92,30.12,7.0,Calm,Calm,-,N/A,,Mostly Cloudy,0,2013-10-10 10:54:00
6:54 AM,50.0,48.9,96,30.12,8.0,Calm,Calm,-,N/A,,Mostly Cloudy,0,2013-10-10 11:54:00
7:54 AM,53.1,51.1,93,30.14,10.0,Calm,Calm,-,N/A,,Scattered Clouds,0,2013-10-10 12:54:00
8:54 AM,59.0,54.0,83,30.14,10.0,Calm,Calm,-,N/A,,Scattered Clouds,0,2013-10-10 13:54:00
9:54 AM,64.9,57.9,78,30.15,10.0,Calm,Calm,-,N/A,,Clear,0,2013-10-10 14:54:00
10:54 AM,70.0,60.1,71,30.14,10.0,Calm,Calm,-,N/A,,Scattered Clouds,0,2013-10-10 15:54:00
11:54 AM,73.0,57.9,59,30.12,10.0,Calm,Calm,-,N/A,,Mostly Cloudy,0,2013-10-10 16:54:00
12:54 PM,77.0,55.0,47,30.08,10.0,Variable,3.5,-,N/A,,Mostly Cloudy,0,2013-10-10 17:54:00
1:54 PM,77.0,57.0,50,30.06,10.0,East,8.1,-,N/A,,Mostly Cloudy,100,2013-10-10 18:54:00
2:54 PM,79.0,55.9,45,30.04,10.0,SE,4.6,-,N/A,,Mostly Cloudy,140,2013-10-10 19:54:00
3:54 PM,79.0,55.9,45,30.01,10.0,ESE,8.1,-,N/A,,Scattered Clouds,120,2013-10-10 20:54:00
4:54 PM,77.0,55.9,48,30.00,10.0,ESE,6.9,-,N/A,,Scattered Clouds,110,2013-10-10 21:54:00
5:54 PM,75.9,57.0,52,29.99,10.0,SE,3.5,-,N/A,,Scattered Clouds,140,2013-10-10 22:54:00
6:54 PM,66.0,57.9,75,30.00,10.0,SSE,3.5,-,N/A,,Partly Cloudy,150,2013-10-10 23:54:00
7:54 PM,68.0,57.0,68,30.00,10.0,SSE,3.5,-,N/A,,Partly Cloudy,160,2013-10-11 00:54:00
8:54 PM,64.9,57.0,75,30.00,10.0,South,4.6,-,N/A,,Clear,180,2013-10-11 01:54:00
9:54 PM,63.0,55.9,78,30.00,10.0,South,3.5,-,N/A,,Clear,170,2013-10-11 02:54:00
10:54 PM,57.9,55.0,90,30.00,10.0,Calm,Calm,-,N/A,,Clear,0,2013-10-11 03:54:00
11:54 PM,55.9,54.0,93,29.99,10.0,South,3.5,-,N/A,,Clear,170,2013-10-11 04:54:00